FW9118 Weather Reports


Display with metric or nautical units.
time (UTC)temp
F
wind
direction
speed
MPH
gust
MPH
rain 1hr
in
rain 24hr
in
rain mn
in
humidity
%
barometer
mb
20210929030245 69 240 1.0 4.0 0.14 0.34 0.34 94 1011.6
20210929024711 69 78 1.0 3.0 0.17 0.34 0.34 94 1011.9
20210929023133 69 155 2.0 6.0 0.12 0.29 0.29 94 1012.0
20210929021620 69 332 1.0 4.0 0.07 0.24 0.24 93 1012.2
20210929020141 69 12 3.0 8.0 0.04 0.20 0.20 92 1012.0
20210929014613 69 87 2.0 7.0 0.17 0.17 0.17 92 1012.3
20210929013219 69 40 3.0 10.0 0.17 0.17 0.17 92 1011.4
20210929011644 69 5 5.0 13.0 0.17 0.17 0.17 91 1011.5
20210929010127 69 325 9.0 17.0 0.16 0.16 0.16 89 1011.6
20210929004647 70 331 4.0 13.0 0.00 0.00 0.00 86 1011.4
20210929003150 71 46 8.0 16.0 0.00 0.00 0.00 84 1011.1
20210929001647 73 13 10.0 23.0 0.00 0.00 0.00 77 1010.5
20210929000156 76 38 11.0 19.0 0.00 0.00 0.00 71 1010.2
20210928234909 87 34 5.0 15.0 0.00 0.00 0.00 51 1010.2
20210928233152 88 140 4.0 10.0 0.00 0.00 0.00 47 1009.3
20210928231632 89 182 5.0 14.0 0.00 0.00 0.00 46 1008.7
20210928230104 90 211 5.0 11.0 0.00 0.00 0.00 45 1008.8
20210928224846 91 174 4.0 13.0 0.00 0.00 0.00 44 1009.0
20210928223218 92 170 4.0 17.0 0.00 0.00 0.00 43 1008.8
20210928221621 92 191 5.0 13.0 0.00 0.00 0.00 44 1009.1
20210928220302 90 178 4.0 13.0 0.00 0.00 0.00 45 1009.1
20210928214705 92 165 4.0 11.0 0.00 0.00 0.00 42 1009.3
20210928213142 91 115 6.0 16.0 0.00 0.00 0.00 45 1009.5
20210928211712 91 153 6.0 14.0 0.00 0.00 0.00 45 1009.4
20210928210118 92 194 5.0 12.0 0.00 0.00 0.00 45 1009.7
20210928204855 90 195 3.0 12.0 0.00 0.00 0.00 47 1009.8
20210928203148 93 187 6.0 13.0 0.00 0.00 0.00 45 1010.0
20210928201729 91 165 3.0 13.0 0.00 0.00 0.00 45 1010.2
20210928200232 91 128 6.0 12.0 0.00 0.00 0.00 45 1011.0
20210928194714 89 125 4.0 14.0 0.00 0.00 0.00 49 1011.4
20210928193144 90 152 4.0 11.0 0.00 0.00 0.00 47 1012.0
20210928191655 89 163 2.0 11.0 0.00 0.00 0.00 52 1012.3
20210928190121 89 233 4.0 9.0 0.00 0.00 0.00 52 1012.6
20210928184627 89 80 5.0 10.0 0.00 0.00 0.00 51 1012.9
20210928183114 89 205 3.0 11.0 0.00 0.00 0.00 52 1013.0
20210928181644 90 171 3.0 9.0 0.00 0.00 0.00 53 1013.4
20210928180226 88 148 5.0 11.0 0.00 0.00 0.00 55 1013.4
20210928174653 86 279 3.0 11.0 0.00 0.00 0.00 58 1013.7
20210928173214 88 165 4.0 11.0 0.00 0.00 0.00 57 1013.9
20210928171624 87 187 4.0 11.0 0.00 0.00 0.00 57 1014.0
20210928170102 85 184 3.0 9.0 0.00 0.00 0.00 63 1014.3
20210928164700 85 228 3.0 11.0 0.00 0.00 0.00 62 1014.4
20210928163153 86 154 2.0 9.0 0.00 0.00 0.00 63 1014.5
20210928161742 84 159 4.0 11.0 0.00 0.00 0.00 66 1014.7
20210928160142 82 189 4.0 8.0 0.00 0.00 0.00 71 1014.7
20210928154652 80 237 4.0 10.0 0.00 0.00 0.00 74 1014.7
20210928153313 80 157 2.0 10.0 0.00 0.00 0.00 75 1014.8
20210928151808 80 245 3.0 8.0 0.00 0.00 0.00 75 1014.7
20210928150231 79 173 2.0 10.0 0.00 0.00 0.00 78 1014.7
20210928144757 78 152 3.0 9.0 0.00 0.00 0.00 80 1014.9
20210928143114 77 146 2.0 8.0 0.00 0.00 0.00 81 1014.9
20210928141643 76 235 2.0 6.0 0.00 0.00 0.00 84 1014.9
20210928140142 74 181 1.0 3.0 0.00 0.00 0.00 88 1015.0
20210928134714 73 167 1.0 3.0 0.00 0.00 0.00 90 1014.9
20210928133221 73 94 0.0 3.0 0.00 0.00 0.00 90 1014.7
20210928131747 73 0 0.0 1.0 0.00 0.00 0.00 90 1014.8
20210928130254 72 0 0.0 2.0 0.00 0.00 0.00 92 1014.8
20210928124646 72 0 0.0 1.0 0.00 0.00 0.00 91 1014.7
20210928123209 72 0 0.0 2.0 0.00 0.00 0.00 92 1014.5
20210928121805 72 0 1.0 4.0 0.00 0.00 0.00 91 1014.7
20210928120148 72 91 0.0 2.0 0.00 0.00 0.00 91 1014.6
20210928114700 73 0 1.0 4.0 0.00 0.00 0.00 90 1014.6
20210928113219 73 125 0.0 3.0 0.00 0.00 0.00 90 1014.6
20210928111630 72 163 0.0 2.0 0.00 0.00 0.00 91 1014.6
20210928110136 72 0 0.0 6.0 0.00 0.00 0.00 89 1014.3
20210928104628 73 136 0.0 5.0 0.00 0.00 0.00 88 1014.4
20210928103109 73 288 0.0 4.0 0.00 0.00 0.00 88 1014.6
20210928101617 73 200 1.0 7.0 0.00 0.00 0.00 87 1014.5
20210928100124 73 219 1.0 8.0 0.00 0.00 0.00 87 1014.6
20210928094628 73 0 1.0 8.0 0.00 0.00 0.00 87 1014.7
20210928093124 72 273 3.0 8.0 0.00 0.00 0.00 88 1014.7
20210928091644 71 175 0.0 2.0 0.00 0.00 0.00 89 1014.6
20210928090207 71 0 0.0 3.0 0.00 0.00 0.00 89 1014.7
20210928084806 71 0 0.0 3.0 0.00 0.00 0.00 88 1014.8
20210928083150 71 123 0.0 2.0 0.00 0.00 0.00 87 1014.6
20210928081636 71 0 0.0 2.0 0.00 0.00 0.00 85 1014.7
20210928080129 71 0 0.0 2.0 0.00 0.00 0.00 85 1014.9
20210928074657 71 0 0.0 3.0 0.00 0.00 0.00 83 1014.9
20210928073353 72 0 0.0 2.0 0.00 0.00 0.00 82 1015.0
20210928071644 73 110 0.0 3.0 0.00 0.00 0.00 81 1015.3
20210928070132 72 0 0.0 3.0 0.00 0.00 0.00 79 1015.4
20210928064643 73 176 1.0 4.0 0.00 0.00 0.00 78 1015.3
20210928063248 73 183 1.0 5.0 0.00 0.00 0.00 77 1015.4
20210928061619 74 0 0.0 3.0 0.00 0.00 0.00 73 1015.5
20210928060110 74 0 1.0 8.0 0.00 0.00 0.00 71 1015.4
20210928054624 73 111 1.0 5.0 0.00 0.00 0.00 70 1015.5
20210928053116 73 111 1.0 6.0 0.00 0.00 0.00 69 1015.5
20210928051658 73 130 1.0 3.0 0.00 0.00 0.00 69 1015.5
20210928050140 72 0 0.0 0.0 0.00 0.00 0.00 70 1015.8
20210928044609 71 0 0.0 2.0 0.00 0.00 0.00 70 1015.7
20210928043153 73 0 1.0 3.0 0.00 0.00 0.00 68 1015.8
20210928041710 73 0 0.0 1.0 0.00 0.00 0.00 67 1015.7
20210928040115 74 0 0.0 2.0 0.00 0.00 0.00 65 1015.6
20210928034644 75 100 0.0 1.0 0.00 0.00 0.00 64 1015.6
20210928033130 75 137 1.0 4.0 0.00 0.00 0.00 64 1015.4
20210928031638 75 115 0.0 4.0 0.00 0.00 0.00 64 1015.4